Location: Newark
(48.5156°N, 1.8989°W)
Time: 13:17:56
(UTC+00:00)

Vanguard 1 Rocket - Pass Details

Date: 15 November 2019
Orbit: 650 x 4226 km, 34.3° (Epoch: 13 December)

Event Time Altitude Azimuth Distance (km) Brightness Sun altitude
Exits shadow 04:11:42 10° 164° (SSE) 2,144 9.4 -30.2°
Maximum altitude 04:12:28 11° 154° (SSE) 2,167 9.5 -30.1°
Drops below altitude 10° 04:13:41 10° 140° (SE) 2,307 9.8 -29.9°
Sets 04:18:54 0° 104° (ESE) 3,768 11.6 -29.0°
